Regional Weather Roundup
Issued by NWS Northern Indiana

Home | Current Version | Previous Version | Graphics & Text | Print | Product List | Glossary On
Versions: 1 2 3 4 5 6 7 8 9 10 11 12 13 14 15 16 17 18 19 20 21 22 23 24 25 26 27 28 29 30 31 32 33 34 35 36 37 38 39 40 41 42 43 44 45 46 47 48 49 50
988
ASUS43 KIWX 251310
RWRIWX

KIWX WEATHER ROUNDUP
NATIONAL WEATHER SERVICE NORTHERN INDIANA
900 AM EDT WED MAY 25 2016

NOTE: "FAIR" INDICATES FEW OR NO CLOUDS BELOW 12,000 FEET WITH NO
SIGNIFICANT WEATHER AND/OR OBSTRUCTIONS TO VISIBILITY.

* THESE STATIONS ARE NOT UNDER NWS QUALITY CONTROL. THEY ALSO MAY NOT
  REPORT WEATHER SUCH AS PRECIPITATION OR FOG.

INZ001>027-251400-
NORTHERN INDIANA

CITY           SKY/WX    TMP DP  RH WIND       PRES   REMARKS
GARY*          MOSUNNY   73  66  78 S6        30.04R
VALPARAISO     SUNNY     72  60  66 S7        30.05R
MICHIGAN CITY* SUNNY     72  59  64 S5        30.06R
LAPORTE*       SUNNY     73  59  61 S7        30.07R
KNOX*          SUNNY     70  46  43 S9        30.06R
SOUTH BEND     SUNNY     72  59  63 S8        30.07R
ELKHART*       SUNNY     72  63  73 SW6       30.07R
GOSHEN         SUNNY     72  56  57 SW9       30.07R
MONTICELLO*    SUNNY     71  55  58 S7        30.06R
LOGANSPORT*    PTSUNNY   68  57  68 SW8       30.10R
ROCHESTER*     SUNNY     72  59  64 SW8       30.09R
WARSAW*        SUNNY     70  55  60 S5        30.08R
ANGOLA*        SUNNY     70  61  73 S5        30.08R
FORT WAYNE     CLOUDY    71  56  58 S12       30.09R
HUNTINGTON*    PTSUNNY  N/A N/A N/A S3        30.09R
MARION*        CLOUDY    68  57  69 S6        30.11R

$$
INZ028>050-251400-
CENTRAL INDIANA

CITY           SKY/WX    TMP DP  RH WIND       PRES   REMARKS
LAFAYETTE      MOSUNNY   70  59  68 S5        30.06R
KOKOMO*        CLOUDY    68  55  64 S9        30.09R
MUNCIE*        CLOUDY    71  56  58 S8        30.10R
INDIANAPOLIS   PTSUNNY   69  59  70 S9        30.08R

$$
MIZ043>046-050>051-056>058-064>065-071>073-077>080-251400-
SOUTHWEST LOWER MICHIGAN

CITY           SKY/WX    TMP DP  RH WIND       PRES   REMARKS
BATTLE CREEK   MOSUNNY   70  57  63 S8        30.07R
BENTON HARBOR  SUNNY     72  58  61 S7        30.05R
COLDWATER*     SUNNY     72  55  56 SW8       30.08R
HILLSDALE*     SUNNY     71  51  47 S6        30.09R
HOLLAND        CLOUDY    71  60  68 S6        30.05R
GRAND RAPIDS   CLOUDY    75  59  57 SW10      30.04R
KALAMAZOO      SUNNY     71  57  61 S6        30.07R
STURGIS*       SUNNY     70  56  61 S6        30.07R
THREE RIVERS*  FAIR      71  56  58 S6        30.07R

$$
OHZ001>008-015>018-024>025-251400-
NORTHWEST OHIO

CITY           SKY/WX    TMP DP  RH WIND       PRES   REMARKS
WAUSEON*         N/A     70  66  88 S8        30.08S
DEFIANCE       SUNNY     72  55  55 S5        30.09R
FINDLAY        MOSUNNY   71  51  49 S10       30.10R
TOLEDO EXPRESS SUNNY     69  54  58 SW6       30.08R
TOLEDO METCALF MOSUNNY   70  53  54 SW8       30.09R
LIMA           PTSUNNY   68  52  56 S9        30.11R

$$
AND FOR LAKE MICHIGAN COASTAL AND OPEN LAKE BUOY OBSERVATIONS

STATION/POSITION TEMP    WIND        PRES    VSBY  WAVE
                 AIR SEA DIR/SP/G                  HT/PER
                 (F)     (DEG/KT/KT) (MB)    (MI)  (FT/S)
CALUMET HARBOR    69     200/  7/  9 1016.0
MICHIGAN CITY     69     140/  7/  8   N/A
BURNS HARBOR      69     180/  8/ 24 1016.9R
SAINT JOSEPH      72     160/  3/  7 1018.3R
SOUTH LAKE BUOY   53 49  170/ 10/ 10 1016.2R         1
4 MI NW BRIDGMAN  62 59  190/  2/  4   N/A           1
MICHIGAN CITY     63 57  190/  2/  4   N/A           0

$$
&&




USA.gov is the U.S. government's official web portal to all federal, state and local government web resources and services.